FW9340 Weather Reports


time (UTC)temp
F
wind
direction
speed
knots
gust
knots
rain 1hr
in
rain 24hr
in
rain mn
in
humidity
%
barometer
mb
20260505041540 63 0 0.9 2.6 0.00 0.00 0.00 58 1011.3
20260505040041 64 236 0.0 3.5 0.00 0.00 0.00 57 1011.2
20260505034540 64 0 0.0 2.6 0.00 0.00 0.00 56 1011.1
20260505033040 65 245 1.7 2.6 0.00 0.00 0.00 55 1011.1
20260505031549 65 227 1.7 5.2 0.00 0.00 0.00 54 1011.0
20260505030040 66 219 1.7 7.0 0.00 0.00 0.00 54 1011.0
20260505024540 66 228 0.9 5.2 0.00 0.00 0.00 53 1011.0
20260505023035 66 236 1.7 3.5 0.00 0.00 0.00 53 1011.0
20260505021541 66 0 0.0 2.6 0.00 0.00 0.00 52 1010.9
20260505020039 66 0 0.0 1.7 0.00 0.00 0.00 52 1010.8
20260505014540 66 0 0.0 4.3 0.00 0.00 0.00 52 1010.7
20260505013055 66 0 0.0 1.7 0.00 0.00 0.00 52 1010.4
20260505011547 67 126 0.0 0.0 0.00 0.00 0.00 51 1010.5
20260505010041 68 0 0.0 0.0 0.00 0.00 0.00 49 1010.4
20260505004540 69 0 0.0 0.0 0.00 0.00 0.00 46 1010.2
20260505003039 70 148 0.0 1.7 0.00 0.00 0.00 45 1009.9
20260505001539 71 0 0.9 3.5 0.00 0.00 0.00 44 1010.1
20260505000054 71 216 0.9 3.5 0.00 0.00 0.00 43 1010.0
20260504234543 71 124 1.7 9.6 0.00 0.00 0.00 42 1010.0
20260504233043 72 163 1.7 7.8 0.00 0.00 0.00 41 1009.9
20260504231542 72 238 1.7 8.7 0.00 0.00 0.00 40 1009.7
20260504230040 73 154 2.6 9.6 0.00 0.00 0.00 39 1009.8
20260504224539 73 227 5.2 17.4 0.00 0.00 0.00 38 1009.9
20260504223047 74 198 4.3 12.2 0.00 0.00 0.00 37 1009.7
20260504221539 75 192 6.1 13.0 0.00 0.00 0.00 36 1009.6
20260504220044 74 229 5.2 15.6 0.00 0.00 0.00 36 1009.7
20260504214546 75 219 5.2 12.2 0.00 0.00 0.00 36 1009.7
20260504213040 74 251 2.6 9.6 0.00 0.00 0.00 37 1009.7
20260504211542 75 335 3.5 9.6 0.00 0.00 0.00 36 1009.7
20260504210042 75 237 5.2 10.4 0.00 0.00 0.00 34 1009.7
20260504204540 75 234 4.3 9.6 0.00 0.00 0.00 36 1009.8
20260504203040 75 156 3.5 10.4 0.00 0.00 0.00 36 1009.9
20260504201550 74 257 4.3 8.7 0.00 0.00 0.00 36 1010.2
20260504200046 74 148 2.6 13.9 0.00 0.00 0.00 35 1010.4
20260504194547 74 54 3.5 12.2 0.00 0.00 0.00 36 1010.4
20260504193040 73 333 3.5 10.4 0.00 0.00 0.00 37 1010.7
20260504191548 73 222 5.2 8.7 0.00 0.00 0.00 37 1011.2
20260504190039 73 210 0.9 13.9 0.00 0.00 0.00 37 1011.4
20260504184559 73 263 2.6 10.4 0.00 0.00 0.00 39 1011.7
20260504183042 73 291 3.5 8.7 0.00 0.00 0.00 41 1012.0
20260504181540 71 175 4.3 10.4 0.00 0.00 0.00 38 1012.0
20260504180042 72 242 0.9 6.1 0.00 0.00 0.00 39 1012.2
20260504174540 72 162 1.7 9.6 0.00 0.00 0.00 38 1012.2
20260504173040 70 150 2.6 11.3 0.00 0.00 0.00 38 1012.3
20260504171540 70 226 5.2 11.3 0.00 0.00 0.00 40 1012.7
20260504081542 46 0 0.0 0.0 0.00 0.00 0.00 73 1015.3
20260504044544 43 0 0.0 0.0 0.00 0.00 0.00 74 1015.6
20260504043043 42 0 0.0 0.0 0.00 0.00 0.00 73 1015.6